TimeCDT,TemperatureF,Dew PointF,Humidity,Sea Level PressureIn,VisibilityMPH,Wind Direction,Wind SpeedMPH,Gust SpeedMPH,PrecipitationIn,Events,Conditions,WindDirDegrees,DateUTC
12:56 AM,57.0,53.1,87,29.99,10.0,Calm,Calm,-,N/A,,Clear,0,2013-05-07 05:56:00
1:56 AM,57.0,53.1,87,29.98,10.0,Calm,Calm,-,N/A,,Clear,0,2013-05-07 06:56:00
2:56 AM,57.9,53.1,84,29.98,6.0,Calm,Calm,-,N/A,,Haze,0,2013-05-07 07:56:00
3:56 AM,57.9,54.0,87,29.99,8.0,Calm,Calm,-,N/A,,Clear,0,2013-05-07 08:56:00
4:56 AM,59.0,55.0,87,29.99,10.0,Calm,Calm,-,N/A,,Mostly Cloudy,0,2013-05-07 09:56:00
5:56 AM,57.9,55.0,90,30.00,8.0,Calm,Calm,-,0.00,,Clear,0,2013-05-07 10:56:00
6:56 AM,57.9,55.0,90,30.02,2.5,Calm,Calm,-,N/A,,Clear,0,2013-05-07 11:56:00
7:09 AM,57.2,55.4,94,30.02,4.0,Calm,Calm,-,N/A,,Clear,0,2013-05-07 12:09:00
7:56 AM,63.0,57.0,81,30.04,7.0,Calm,Calm,-,N/A,,Clear,0,2013-05-07 12:56:00
8:56 AM,71.1,55.9,59,30.04,10.0,East,3.5,-,N/A,,Clear,80,2013-05-07 13:56:00
9:56 AM,73.0,52.0,48,30.05,10.0,Calm,Calm,-,N/A,,Clear,0,2013-05-07 14:56:00
10:56 AM,75.0,53.1,46,30.05,10.0,Variable,3.5,-,N/A,,Clear,0,2013-05-07 15:56:00
11:56 AM,79.0,51.1,38,30.04,10.0,Variable,4.6,-,N/A,,Clear,0,2013-05-07 16:56:00
12:56 PM,80.1,51.1,36,30.03,10.0,Calm,Calm,-,N/A,,Partly Cloudy,0,2013-05-07 17:56:00
1:56 PM,81.0,51.1,35,30.01,10.0,Variable,5.8,-,N/A,,Partly Cloudy,0,2013-05-07 18:56:00
2:56 PM,82.9,50.0,32,29.99,10.0,NE,5.8,-,N/A,,Partly Cloudy,40,2013-05-07 19:56:00
3:56 PM,82.0,50.0,33,29.98,10.0,Calm,Calm,-,N/A,,Clear,0,2013-05-07 20:56:00
4:56 PM,82.9,51.1,33,29.97,10.0,Variable,4.6,-,N/A,,Mostly Cloudy,0,2013-05-07 21:56:00
5:56 PM,82.0,50.0,33,29.96,10.0,North,6.9,-,N/A,,Partly Cloudy,360,2013-05-07 22:56:00
7:56 PM,70.0,59.0,68,29.98,10.0,Calm,Calm,-,N/A,,Clear,0,2013-05-08 00:56:00
8:56 PM,64.9,57.9,78,30.00,10.0,Calm,Calm,-,N/A,,Clear,0,2013-05-08 01:56:00
9:56 PM,62.1,57.0,84,30.01,10.0,Calm,Calm,-,N/A,,Clear,0,2013-05-08 02:56:00
10:56 PM,60.1,55.9,86,30.02,9.0,Calm,Calm,-,N/A,,Clear,0,2013-05-08 03:56:00
11:56 PM,59.0,55.0,87,30.03,10.0,Calm,Calm,-,N/A,,Clear,0,2013-05-08 04:56:00